Starlink 5489

operational
NORAD ID: 56136 Int'l Des: 2023-046 Owner: SPXS Country: US Constellation: starlink
LEOCIRCULAR

Über Starlink 5489

Beschreibung wird geladen...

Live-Position

3D-Globus wird geladen...

Nächste Überflüge

Höhenverlauf

Altitude vs Time

uPlot chart will show altitude changes over time

Zweizeiliger Elementsatz

1 56136U 23046AW 26061.38992173 .00016386 00000-0 12213-2 0 9998
2 56136 43.0037 185.6602 0000799 294.2579 65.8180 15.02658294161111
Epoch: 2. März 2026 • Age: 67 hours

Aktueller Status

Höhe 558.7 km
Geschwindigkeit 7.59 km/s
Subsatellitenpunkt 23.79°N, 129.49°W
Startdatum 29. März 2023
Alter 2.9 years
Typ internet

Technische Details

Klassifizierung Payload
Masse 305.00 kg
Trockenmasse 290.00 kg
Gesamtmasse 305.00 kg
Länge 0.20 m
Durchmesser 2.80 m
Spannweite 9.00 m
Form Box + pan
Hersteller SPXS
Bus-Typ Starlink
Phasenstatus In Orbit
Besitzer/Staat SPXS/US

Große Konstellationen

Loading constellations...